Regional Weather Roundup
Issued by NWS Bismarck, ND

Home | Current Version | Previous Version | Text Only | Print | Product List | Glossary On
Versions: 1 2 3 4 5 6 7 8 9 10 11 12 13 14 15 16 17 18 19 20 21 22 23 24 25 26 27 28 29 30 31 32 33 34 35 36 37 38 39 40 41 42 43 44 45 46 47 48 49 50
000
ASUS43 KBIS 291510
RWRBIS

NWR BROADCAST TEXT
NATIONAL WEATHER SERVICE BISMARCK ND
1000 AM CDT SAT AUG 29 2015

NOTE: "FAIR" INDICATES FEW OR NO CLOUDS BELOW 12,000 FEET WITH NO
SIGNIFICANT WEATHER AND/OR OBSTRUCTIONS TO VISIBILITY.


CITY           SKY/WX    TMP DP  RH WIND       PRES   REMARKS
WILLISTON      PTSUNNY   67  51  56 S6        29.91F HAZE
MINOT          CLOUDY    69  53  56 S8        29.90S HAZE
MINOT AFB      MOSUNNY   69  58  68 SW1       29.90R
BISMARCK       CLOUDY    67  61  81 CALM      29.96S
DICKINSON      SUNNY     76  49  38 S8        29.96S HAZE
GARRISON         N/A     67  62  84 CALM      29.93F
HETTINGER ARPT CLOUDY    73  54  51 CALM      30.00F HAZE
JAMESTOWN      SUNNY     68  64  87 S7        29.94R
CROSBY         FAIR      66  52  59 S13       29.88F HAZE
HARVEY         FAIR      64  64 100 SW3       29.93S FOG
HAZEN          FAIR      63  55  77 CALM      29.95F HAZE
LINTON         FAIR      70  66  88 CALM      29.97S
OAKES            N/A     64  61  88 S12       29.98S
RUGBY          FAIR      63  63 100 SW3       29.91S FOG
STANLEY        FAIR      68  59  73 S5        29.93F
$$

CITY           SKY/WX    TMP DP  RH WIND       PRES   REMARKS
GRAND FORKS    CLOUDY    66  65  96 S8        29.90F
GRAND FORKS AF MOSUNNY   68  68 100 S8        29.91F
DEVILS LAKE    SUNNY     68  61  77 S5        29.91R
FARGO          SUNNY     69  61  75 S12       29.95S
CAVALIER       FOG       64  64 100 SE3       29.90F VSB<1/4
GRAFTON        FOG       64  64 100 SE7       29.91F VSB<1/4
GWINNER          N/A     70  66  88 SW12      29.98R
LANGDON        FAIR      73  70  88 S8        29.93R
ROLLA          FAIR      64  64 100 SW5       29.93R
WALHALLA       FOG       66  66 100 MISG      29.91R VSB 1/4
$$

CITY           SKY/WX    TMP DP  RH WIND       PRES   REMARKS
ABERDEEN       MOSUNNY   66  62  87 S10       29.99S
MOBRIDGE       SUNNY     70  67  90 S3        29.96S
BUFFALO          N/A     70  54  56 CALM      29.95F
RAPID CITY     SUNNY     66  57  72 CALM      30.06S
GLASGOW        CLOUDY    72  47  40 CALM      29.90S HAZE
SIDNEY         PTSUNNY   63  52  67 S7        29.91F
WOLF POINT     CLOUDY    66  48  52 CALM      29.89S HAZE
GLENDIVE       MOSUNNY   68  48  49 SE5       29.96F
MILES CITY     SUNNY     69  46  43 SE7       29.94F HAZE
BAKER          SUNNY     76  48  37 E7        29.99S HAZE
$$

CITY           SKY/WX    TMP DP  RH WIND       PRES   REMARKS
BILLINGS       PTSUNNY   67  44  43 SW9       30.02R
GREAT FALLS    PTSUNNY   77  40  26 SE13      29.91F HAZE
REGINA         CLOUDY    64  57  77 VRB2      29.83S SMOKE
ESTEVAN        CLOUDY    66  55  68 S7        29.88R SMOKE
$$




USA.gov is the U.S. government's official web portal to all federal, state and local government web resources and services.